• In Russia
  • List of Countries
  • For 7 days
  • Water Temperature
  • Satellite Maps
  • Weather Map
  • Weather Widgets
  • user-avatar
    Login

    Hourly Weather Graz

    Today, 28 March, Tuesday

    Time Temperature Precipitation Wind Pressure Humidity
    00:00 +3°C° 0 mm 1 mps 728 mmHg 82%
    01:00 +3°C° 0 mm 1 mps 728 mmHg 82%
    02:00 +3°C° 0 mm 1 mps 728 mmHg 81%
    03:00 +3°C° 0 mm 1 mps 728 mmHg 81%
    04:00 +3°C° 0 mm 1 mps 728 mmHg 81%
    05:00 +4°C° 0 mm 1 mps 728 mmHg 75%
    06:00 +6°C° 0 mm 1 mps 728 mmHg 70%
    07:00 +7°C° 0 mm 1 mps 728 mmHg 64%
    08:00 +10°C° 0 mm 1 mps 729 mmHg 56%
    09:00 +13°C° 0 mm 1 mps 729 mmHg 47%
    10:00 +16°C° 0 mm 1 mps 729 mmHg 39%
    11:00 +18°C° 0 mm 1 mps 729 mmHg 38%
    12:00 +19°C° 0 mm 1 mps 729 mmHg 38%
    13:00 +19°C° 0 mm 1 mps 729 mmHg 37%
    14:00 +19°C° 0 mm 1 mps 729 mmHg 40%
    15:00 +19°C° 0 mm 1 mps 728 mmHg 43%
    16:00 +19°C° 0 mm 1 mps 728 mmHg 46%
    17:00 +14°C° 0 mm 1 mps 728 mmHg 59%
    18:00 +11°C° 0 mm 1 mps 728 mmHg 72%
    19:00 +7°C° 0 mm 1 mps 727 mmHg 85%
    20:00 +7°C° 0 mm 1 mps 728 mmHg 86%
    21:00 +7°C° 0 mm 1 mps 728 mmHg 87%
    22:00 +7°C° 0 mm 1 mps 728 mmHg 88%
    23:00 +7°C° 0 mm 1 mps 729 mmHg 87%

    Tomorrow, 29 March, Wednesday

    Time Temperature Precipitation Wind Pressure Humidity
    00:00 +7°C° 0 mm 1 mps 729 mmHg 87%
    01:00 +7°C° 0 mm 1 mps 729 mmHg 87%
    02:00 +7°C° 0 mm 1 mps 729 mmHg 87%
    03:00 +7°C° 0 mm 1 mps 729 mmHg 88%
    04:00 +7°C° 0 mm 1 mps 729 mmHg 89%
    05:00 +8°C° 0 mm 1 mps 729 mmHg 88%
    06:00 +8°C° 0 mm 1 mps 730 mmHg 87%
    07:00 +9°C° 0 mm 1 mps 730 mmHg 86%
    08:00 +12°C° 0 mm 1 mps 730 mmHg 76%
    09:00 +14°C° 0 mm 1 mps 730 mmHg 67%
    10:00 +18°C° 0 mm 1 mps 731 mmHg 58%
    11:00 +19°C° 0 mm 1 mps 731 mmHg 55%
    12:00 +20°C° 0 mm 1 mps 730 mmHg 53%
    13:00 +20°C° 0 mm 1 mps 730 mmHg 50%
    14:00 +20°C° 0 mm 1 mps 730 mmHg 52%
    15:00 +19°C° 0 mm 1 mps 730 mmHg 55%
    16:00 +19°C° 0 mm 1 mps 729 mmHg 57%
    17:00 +16°C° 0 mm 1 mps 729 mmHg 67%
    18:00 +13°C° 0 mm 1 mps 729 mmHg 76%
    19:00 +11°C° 0 mm 1 mps 729 mmHg 85%
    20:00 +11°C° 0 mm 1 mps 730 mmHg 86%
    21:00 +10°C° 0 mm 1 mps 730 mmHg 87%
    22:00 +10°C° 0 mm 1 mps 730 mmHg 88%
    23:00 +10°C° 0 mm 1 mps 731 mmHg 90%

    Day after tomorrow, 30 March, Thursday

    Time Temperature Precipitation Wind Pressure Humidity
    00:00 +9°C° 0 mm 1 mps 731 mmHg 91%
    01:00 +9°C° 0 mm 1 mps 731 mmHg 92%
    02:00 +9°C° 0 mm 1 mps 731 mmHg 92%
    03:00 +8°C° 0 mm 1 mps 731 mmHg 93%
    04:00 +8°C° 0 mm 1 mps 731 mmHg 93%
    05:00 +9°C° 0 mm 1 mps 731 mmHg 92%
    06:00 +9°C° 0 mm 1 mps 731 mmHg 90%
    07:00 +10°C° 0 mm 1 mps 732 mmHg 88%
    08:00 +12°C° 0 mm 1 mps 732 mmHg 79%
    09:00 +15°C° 0 mm 1 mps 732 mmHg 69%
    10:00 +16°C° 0 mm 0 mps 732 mmHg 60%
    11:00 +19°C° 0 mm 1 mps 732 mmHg 57%
    12:00 +19°C° 0 mm 1 mps 732 mmHg 54%
    13:00 +20°C° 0 mm 1 mps 731 mmHg 50%
    14:00 +20°C° 0 mm 1 mps 731 mmHg 52%
    15:00 +20°C° 0 mm 1 mps 731 mmHg 53%
    16:00 +19°C° 0 mm 1 mps 730 mmHg 55%
    17:00 +16°C° 0 mm 1 mps 730 mmHg 64%
    18:00 +14°C° 0 mm 1 mps 730 mmHg 73%
    19:00 +12°C° 0 mm 1 mps 730 mmHg 82%
    20:00 +11°C° 0 mm 1 mps 730 mmHg 85%
    21:00 +11°C° 0 mm 1 mps 731 mmHg 89%
    22:00 +10°C° 0 mm 1 mps 731 mmHg 92%
    23:00 +9°C° 0 mm 0 mps 731 mmHg 92%

    31 March, Friday

    Time Temperature Precipitation Wind Pressure Humidity
    00:00 +8°C° 0 mm 0 mps 730 mmHg 93%
    01:00 +8°C° 0 mm 0 mps 730 mmHg 94%
    02:00 +7°C° 0 mm 0 mps 730 mmHg 94%
    03:00 +7°C° 0 mm 0 mps 730 mmHg 95%
    04:00 +6°C° 0 mm 0 mps 729 mmHg 96%
    05:00 +8°C° 0 mm 0 mps 729 mmHg 94%
    06:00 +10°C° 0 mm 1 mps 730 mmHg 93%
    07:00 +11°C° 0 mm 1 mps 730 mmHg 92%
    08:00 +13°C° 0 mm 1 mps 730 mmHg 84%
    09:00 +15°C° 0 mm 1 mps 730 mmHg 76%
    10:00 +17°C° 0 mm 2 mps 729 mmHg 68%
    11:00 +17°C° 0 mm 2 mps 729 mmHg 65%
    12:00 +18°C° 0 mm 2 mps 729 mmHg 63%
    13:00 +18°C° 0 mm 2 mps 728 mmHg 61%
    14:00 +18°C° 0 mm 2 mps 728 mmHg 62%
    15:00 +18°C° 0 mm 2 mps 727 mmHg 62%
    16:00 +18°C° 0 mm 2 mps 727 mmHg 63%
    17:00 +16°C° 0 mm 2 mps 726 mmHg 71%
    18:00 +14°C° 0 mm 2 mps 726 mmHg 80%
    19:00 +12°C° 0 mm 1 mps 726 mmHg 89%
    20:00 +11°C° 0 mm 1 mps 726 mmHg 91%
    21:00 +10°C° 0 mm 1 mps 726 mmHg 93%
    22:00 +9°C° 0 mm 1 mps 726 mmHg 94%
    23:00 +9°C° 0 mm 1 mps 726 mmHg 95%

    1 April, Saturday

    Time Temperature Precipitation Wind Pressure Humidity
    00:00 +9°C° 0 mm 1 mps 726 mmHg 95%
    01:00 +8°C° 0 mm 1 mps 726 mmHg 96%
    02:00 +8°C° 0 mm 1 mps 725 mmHg 96%
    03:00 +7°C° 0 mm 1 mps 725 mmHg 96%
    04:00 +7°C° 0 mm 1 mps 725 mmHg 96%
    05:00 +8°C° 0 mm 1 mps 725 mmHg 94%
    06:00 +9°C° 0 mm 1 mps 725 mmHg 92%
    07:00 +11°C° 0 mm 1 mps 725 mmHg 90%
    08:00 +13°C° 0 mm 1 mps 725 mmHg 81%
    09:00 +15°C° 0 mm 1 mps 725 mmHg 71%
    10:00 +17°C° 0 mm 2 mps 725 mmHg 61%
    11:00 +18°C° 0 mm 2 mps 725 mmHg 57%
    12:00 +19°C° 0 mm 2 mps 725 mmHg 53%
    13:00 +20°C° 0 mm 3 mps 725 mmHg 49%
    14:00 +19°C° 0 mm 3 mps 724 mmHg 50%
    15:00 +19°C° 0 mm 3 mps 724 mmHg 50%
    16:00 +19°C° 0 mm 3 mps 724 mmHg 51%
    17:00 +17°C° 0 mm 3 mps 724 mmHg 63%
    18:00 +14°C° 0 mm 2 mps 724 mmHg 74%
    19:00 +12°C° 0 mm 2 mps 723 mmHg 85%
    20:00 +10°C° 0 mm 2 mps 724 mmHg 87%
    21:00 +10°C° 0 mm 1 mps 724 mmHg 89%
    22:00 +10°C° 0 mm 1 mps 724 mmHg 91%
    23:00 +9°C° 0 mm 1 mps 724 mmHg 92%

    2 April, Sunday

    Time Temperature Precipitation Wind Pressure Humidity
    00:00 +9°C° 0 mm 1 mps 724 mmHg 92%
    01:00 +8°C° 0 mm 1 mps 724 mmHg 92%
    02:00 +8°C° 0 mm 1 mps 724 mmHg 93%
    03:00 +8°C° 0 mm 1 mps 725 mmHg 93%
    04:00 +7°C° 0 mm 1 mps 725 mmHg 93%
    05:00 +8°C° 0 mm 1 mps 725 mmHg 89%
    06:00 +9°C° 0 mm 1 mps 726 mmHg 85%
    07:00 +10°C° 0 mm 1 mps 726 mmHg 81%
    08:00 +13°C° 0 mm 1 mps 726 mmHg 70%
    09:00 +15°C° 0 mm 1 mps 727 mmHg 59%
    10:00 +19°C° 0 mm 1 mps 727 mmHg 47%
    11:00 +20°C° 0 mm 1 mps 727 mmHg 44%
    12:00 +21°C° 0 mm 1 mps 727 mmHg 40%
    13:00 +22°C° 0 mm 1 mps 727 mmHg 37%
    14:00 +21°C° 0 mm 1 mps 727 mmHg 39%
    15:00 +21°C° 0 mm 1 mps 727 mmHg 40%
    16:00 +21°C° 0 mm 1 mps 727 mmHg 42%
    17:00 +18°C° 0 mm 1 mps 726 mmHg 55%
    18:00 +14°C° 0 mm 1 mps 726 mmHg 68%
    19:00 +11°C° 0 mm 1 mps 726 mmHg 82%
    20:00 +11°C° 0 mm 1 mps 726 mmHg 83%
    21:00 +10°C° 0 mm 1 mps 727 mmHg 85%
    22:00 +10°C° 0 mm 1 mps 727 mmHg 86%
    23:00 +10°C° 0 mm 1 mps 727 mmHg 86%
    Show more